CZ-3B DEB, 42460

Orbit data source: Space-Track

CZ-3B DEB, 42460 is space debris in HEO originally from a launch on Sat, 04 Sep 2010 UTC launched from the Xichang Space Center, China (XSC). Debris objects in space refer to the collection of defunct objects orbiting the Earth. Examples of debris include non-operational satellites, rocket bodies, and fragments generated from explosions, collisions, or faulty payload assembly.

Loading next visibility...
Identifier
42460, 2010-042AB
Orbit
HEO
Country
Flag of CNCN / PRC
Related business
Manufacturer
CALT
Mission
Spacecraft
Bus & Motor
Unknown
Mass
Unknown
Launch date (UTC)
2010-09-04 (16 years ago)
Launch vehicle
Unknown
Launch site
Xichang Space Center, China (XSC)
Object type
Payload
Rocket body
Debris
Shape & HBR
Unknown shape, 0.2 m
Radar Cross Section
Medium (>0.1 m² and <1 m²)

Expand to show TLE details & history
Last TLE update: 6 days ago

TLE from 6 days ago
0 CZ-3B DEB
1 42460U 10042AB  26158.24922566  .00000339  00000-0  26019-2 0  9996
2 42460  29.8469 104.4801 7499251  97.1105 344.7586  1.90199622  1742
Epoch: 2026-06-07T05:58Z
TLE epoch observation values (Epoch: 2026-06-07T05:58:53.097Z)
Latitude
0.00005°
Longitude
118.97065°
Altitude
6,933.217 km
Speed
6.738 km/s
True Right ascension
06h 57m 22s
True Declination
0° 00' 00"
Sunlit
Object was in daylight at epoch
Visualization orbit readout
Latitude
Unknown
Longitude
Unknown
Altitude
Unknown
Speed
Unknown
Apparent Right ascension
Unknown
Apparent Declination
Unknown
Sunlit
N/A
Visualization observer readout
Local Sidereal Time
09:11:32
Azimuth
Unknown
Elevation
Unknown
Doppler factor
Unknown
Orbital elements
Apogee altitude
41,780.033 km
Perigee altitude
503.957 km
Semi-major axis
27,520.132 km
Eccentricity
0.74993
Inclination
29.8469°
RAAN
104.4801°
Arg. of periapsis
97.1105°
True anomaly
262.94653°
Mean anomaly
344.7586°
Eccentric anomaly
313.68854°
Mean motion
0.47541 °/min
Orbital period
757.24 mins
BSTAR
0.0026019
Loading maneuver chart data...
Computing Atmospheric mass density...
Loading historical data...
Loading historical data...
Loading historical data...
Loading historical data...
Loading historical data...
Loading historical data...
Loading historical data...

Documentation

Showing up to 5 results
|